TimeCST,TemperatureF,Dew PointF,Humidity,Sea Level PressureIn,VisibilityMPH,Wind Direction,Wind SpeedMPH,Gust SpeedMPH,PrecipitationIn,Events,Conditions,WindDirDegrees,DateUTC
12:56 AM,43.0,41.0,93,30.08,5.0,Calm,Calm,-,N/A,,Clear,0,2012-11-07 06:56:00
1:56 AM,42.1,41.0,96,30.09,6.0,Calm,Calm,-,N/A,,Clear,0,2012-11-07 07:56:00
2:56 AM,44.1,42.1,93,30.09,5.0,Calm,Calm,-,N/A,,Clear,0,2012-11-07 08:56:00
3:56 AM,45.0,43.0,93,30.09,7.0,Calm,Calm,-,N/A,,Clear,0,2012-11-07 09:56:00
4:56 AM,45.0,43.0,93,30.10,7.0,Calm,Calm,-,N/A,,Clear,0,2012-11-07 10:56:00
5:56 AM,44.1,43.0,96,30.11,7.0,Calm,Calm,-,N/A,,Clear,0,2012-11-07 11:56:00
6:50 AM,42.8,41.0,93,30.12,1.8,Calm,Calm,-,N/A,,Clear,0,2012-11-07 12:50:00
6:56 AM,43.0,41.0,93,30.12,0.8,Calm,Calm,-,N/A,,Clear,0,2012-11-07 12:56:00
7:10 AM,42.8,42.8,100,30.12,1.8,Calm,Calm,-,N/A,,Clear,0,2012-11-07 13:10:00
7:17 AM,44.6,42.8,93,30.12,2.0,Calm,Calm,-,N/A,,Clear,0,2012-11-07 13:17:00
7:37 AM,48.2,46.4,93,30.13,6.0,Calm,Calm,-,N/A,,Clear,0,2012-11-07 13:37:00
7:56 AM,53.1,45.0,74,30.14,9.0,Calm,Calm,-,N/A,,Clear,0,2012-11-07 13:56:00
8:56 AM,59.0,46.0,62,30.14,10.0,NNW,3.5,-,N/A,,Clear,340,2012-11-07 14:56:00
9:56 AM,66.9,43.0,42,30.14,10.0,Variable,5.8,-,N/A,,Clear,0,2012-11-07 15:56:00
10:56 AM,68.0,34.0,28,30.13,10.0,Variable,5.8,-,N/A,,Clear,0,2012-11-07 16:56:00
11:56 AM,70.0,30.9,24,30.10,10.0,Variable,4.6,17.3,N/A,,Clear,0,2012-11-07 17:56:00
12:56 PM,71.1,26.1,19,30.07,10.0,North,9.2,20.7,N/A,,Clear,350,2012-11-07 18:56:00
1:56 PM,72.0,28.0,20,30.05,10.0,North,12.7,17.3,N/A,,Clear,350,2012-11-07 19:56:00
2:56 PM,72.0,28.9,20,30.06,10.0,North,11.5,17.3,N/A,,Clear,360,2012-11-07 20:56:00
3:56 PM,71.1,30.0,22,30.07,10.0,North,5.8,-,N/A,,Clear,360,2012-11-07 21:56:00
4:56 PM,66.9,30.9,26,30.08,10.0,Calm,Calm,-,N/A,,Clear,0,2012-11-07 22:56:00
5:56 PM,55.9,35.1,45,30.09,4.0,Calm,Calm,-,N/A,,Haze,0,2012-11-07 23:56:00
6:56 PM,51.1,37.0,59,30.11,10.0,Calm,Calm,-,N/A,,Clear,0,2012-11-08 00:56:00
7:56 PM,46.9,37.9,71,30.12,10.0,Calm,Calm,-,N/A,,Clear,0,2012-11-08 01:56:00
8:56 PM,45.0,39.0,80,30.13,10.0,Calm,Calm,-,N/A,,Clear,0,2012-11-08 02:56:00
9:56 PM,43.0,37.9,82,30.14,10.0,Calm,Calm,-,N/A,,Clear,0,2012-11-08 03:56:00
10:56 PM,42.1,37.9,85,30.15,10.0,Calm,Calm,-,N/A,,Clear,0,2012-11-08 04:56:00
11:56 PM,44.1,37.9,79,30.15,10.0,Calm,Calm,-,N/A,,Clear,0,2012-11-08 05:56:00